Theta_e
340 342 344 344 343 342 341 340 340 340 339 339 338 338 337 339 339 339 338 336 336 335 334 334 334 335 335 333 333 333 335 335 335 336 336 336 335 335 335 334 334 333 333 332 331 330 329 328 327 325 324 324
338 340 342 342 341 341 340 340 340 339 339 339 338 338 337 336 336 338 338 337 335 334 333 335 334 333 332 332 332 333 335 334 334 333 334 334 334 334 334 333 333 332 331 330 329 328 327 327 325 324 323 321
336 335 338 339 339 339 339 339 339 339 337 337 336 335 333 332 333 333 334 337 336 335 334 334 334 333 332 332 332 333 334 333 333 333 333 334 334 333 332 332 332 331 330 328 327 326 324 323 322 321 320 320
334 333 332 335 336 336 337 337 337 336 333 332 329 329 329 328 326 325 325 325 327 331 331 330 327 332 333 332 331 331 332 332 331 331 332 333 333 333 332 332 331 329 329 327 325 323 321 319 318 315 317 319
336 334 331 331 331 332 333 332 333 333 327 324 324 323 323 323 321 320 321 322 322 323 323 324 325 332 332 331 330 331 330 331 330 330 331 331 331 330 329 327 327 326 327 325 324 321 317 315 313 314 316 317
337 335 333 333 333 332 330 327 326 326 325 325 321 320 321 319 320 319 318 319 324 320 321 322 323 325 330 331 330 330 330 330 329 329 329 329 327 325 322 317 313 314 319 320 320 317 314 311 311 313 314 316
336 337 337 335 335 331 326 326 325 324 323 321 320 318 318 317 318 317 317 317 320 320 320 321 321 324 328 330 329 329 330 329 327 327 327 325 322 319 316 309 308 308 308 309 313 311 310 309 309 311 313 314
336 337 337 337 336 331 327 324 324 322 322 321 320 320 318 317 317 317 318 321 322 321 319 320 321 323 325 325 324 324 325 326 325 323 321 319 315 312 309 307 307 308 307 307 307 308 307 307 307 308 310 312
335 337 337 337 336 332 326 323 322 322 321 321 320 319 318 317 316 316 317 317 318 317 318 317 319 320 319 319 317 318 312 308 308 307 305 306 307 305 306 306 306 307 307 306 306 306 306 306 306 307 308 310
335 336 336 336 335 332 328 325 322 321 320 320 319 318 318 317 316 316 316 316 316 316 317 317 315 316 315 315 313 313 307 305 304 303 304 304 304 304 304 305 305 304 306 306 305 306 305 306 306 307 307 308
335 337 337 336 335 333 330 327 324 321 319 319 319 318 318 317 316 315 314 315 315 316 316 316 314 313 312 314 312 309 306 304 303 303 303 303 303 303 304 303 303 303 303 304 305 304 304 305 305 306 307 307
336 337 337 336 333 333 331 329 325 323 320 319 319 319 318 317 317 316 314 314 314 314 314 315 314 313 311 311 309 305 305 303 302 301 302 303 302 303 303 303 302 303 303 302 303 304 303 304 305 305 306 307
337 337 337 336 334 334 329 332 329 325 321 319 319 319 318 317 316 315 314 313 313 312 314 312 312 311 311 311 308 305 305 303 302 301 302 302 302 302 302 302 302 302 301 301 302 303 303 302 303 303 306 307
336 337 336 336 335 335 331 334 332 328 323 320 320 320 318 317 317 316 315 314 312 312 312 310 309 310 311 310 306 304 305 303 301 301 300 300 301 301 301 301 301 301 300 300 300 301 302 301 302 301 304 306
336 336 336 336 335 334 333 334 334 331 326 322 321 322 318 317 317 316 315 314 312 311 311 310 309 309 309 308 305 304 305 302 301 300 301 301 301 300 300 300 299 300 300 299 299 298 300 299 301 302 303 304
336 336 336 336 336 335 334 334 335 333 330 323 322 323 319 317 317 316 315 314 312 310 309 309 309 308 308 309 304 305 304 302 301 300 299 299 299 299 299 298 298 298 299 298 297 297 298 298 299 299 301 301
336 337 337 336 336 336 334 334 334 333 333 329 325 325 322 318 317 316 315 314 312 309 308 308 307 307 307 308 304 305 304 302 300 298 297 297 297 297 297 297 296 297 297 297 295 295 295 296 296 296 298 299
336 337 337 337 337 335 335 334 334 333 334 332 329 327 326 322 319 316 317 315 312 310 309 308 307 307 306 306 303 306 303 301 299 298 297 296 297 298 297 297 296 297 296 293 293 293 293 294 294 295 296 296
335 336 336 336 336 336 335 335 334 334 334 333 332 330 329 325 321 318 318 316 314 311 310 308 308 308 308 307 306 307 304 302 299 298 297 297 297 296 296 296 296 297 297 295 294 292 292 293 293 294 294 293
335 335 336 336 331 336 335 334 334 334 334 334 333 332 331 328 324 321 320 318 316 313 310 308 307 307 308 307 308 308 306 303 300 298 298 298 299 297 295 295 295 294 294 294 293 292 292 292 292 293 293 293
333 333 333 334 334 334 334 334 334 335 334 334 333 333 332 331 327 323 322 320 317 314 311 309 307 306 307 307 308 308 306 304 302 300 299 298 299 300 297 296 294 293 293 293 292 291 292 291 292 292 292 292
331 332 332 332 332 330 332 333 334 334 334 334 334 333 332 332 330 326 324 323 320 316 312 310 308 306 306 307 308 308 307 305 303 301 300 298 298 299 297 295 294 293 292 292 292 291 291 291 290 291 292 292
327 328 329 329 329 328 330 331 333 333 333 333 333 333 333 333 332 328 327 325 323 319 315 312 311 309 307 306 308 308 308 306 304 302 301 299 298 298 298 297 295 294 293 292 292 291 290 289 289 290 292 292
323 324 326 325 323 325 326 328 327 330 332 332 332 332 332 332 333 331 329 328 325 323 319 316 314 312 309 307 307 308 307 307 304 302 300 299 297 296 295 295 294 293 293 291 290 290 289 289 288 289 291 290
323 323 324 324 325 325 326 325 325 326 327 329 331 332 332 331 331 332 330 329 328 325 321 321 319 316 313 309 308 308 308 308 306 304 302 300 298 295 294 293 293 294 293 291 289 289 289 289 289 292 291 289
322 324 326 325 326 327 326 323 322 323 324 326 327 329 331 331 332 332 331 327 330 327 326 324 323 320 316 313 310 309 309 309 306 304 302 300 297 296 295 293 293 293 294 293 292 288 287 288 288 289 289 288
322 322 321 323 320 325 319 316 320 320 318 320 323 326 328 330 331 332 331 330 327 329 327 326 325 323 319 315 312 310 310 309 307 305 303 301 298 295 295 294 294 293 297 293 290 290 289 287 288 290 288 288
322 319 315 314 311 312 319 316 312 313 309 314 318 322 324 327 330 331 331 331 330 328 329 327 326 325 321 317 314 312 310 309 307 306 303 301 300 297 293 292 291 294 295 293 292 289 291 287 288 286 288 286
316 313 310 305 305 306 309 308 308 308 312 314 316 319 320 323 326 328 330 331 330 327 329 328 327 326 323 318 315 314 312 311 309 307 305 302 300 297 297 292 292 292 294 294 298 295 286 284 285 287 287 286
315 316 316 311 313 312 309 312 309 312 315 314 314 317 319 319 322 325 327 329 330 330 328 329 328 327 325 321 317 314 314 313 311 308 306 304 302 299 299 297 292 291 293 294 294 295 297 292 293 289 287 287
314 314 314 315 317 317 316 315 315 311 307 313 311 309 316 320 320 322 324 326 329 329 328 329 329 328 326 324 320 315 314 313 312 309 307 305 302 301 299 299 295 293 292 292 293 294 293 294 293 292 287 287
Wind_Speed
10 11 11 11 12 12 12 13 13 13 13 13 12 12 10 8 9 11 11 11 11 11 11 11 13 14 13 13 12 13 14 13 13 14 15 16 16 16 16 15 15 15 15 14 14 13 12 11 9 10 9 5
9 10 10 10 10 10 10 11 12 12 12 12 12 10 9 9 9 10 10 11 12 11 10 13 14 13 13 13 14 14 15 14 13 13 15 16 16 16 15 15 15 15 14 14 13 12 11 9 10 10 8 4
7 11 10 9 9 9 10 9 10 10 9 9 9 9 8 8 8 8 9 9 9 8 7 8 10 13 12 13 13 14 14 13 12 13 15 15 16 16 16 16 15 14 14 13 12 11 10 9 10 10 6 4
5 9 10 10 9 9 9 9 9 9 8 8 8 8 8 9 7 7 7 10 8 9 9 9 8 10 11 12 12 12 13 12 11 12 13 14 14 15 15 15 15 14 14 14 13 12 11 10 10 6 4 4
5 7 9 8 10 10 9 9 9 9 9 8 7 7 8 7 5 4 4 5 5 7 6 9 10 9 10 11 10 10 12 11 10 11 12 12 13 13 13 11 12 12 12 13 13 12 10 9 6 5 5 5
5 6 7 5 5 5 7 7 8 7 5 6 4 6 5 4 4 4 3 4 5 4 5 6 9 8 8 9 8 9 11 10 10 11 12 12 13 13 13 11 7 7 9 11 11 10 10 8 4 5 4 4
5 7 6 6 6 5 6 6 6 5 5 4 4 4 4 4 4 4 4 4 4 4 6 6 8 9 8 8 7 8 9 10 11 12 13 13 13 12 11 7 6 5 5 6 9 8 7 5 5 4 4 4
6 6 6 6 5 5 5 5 5 5 4 5 4 4 4 4 4 4 5 6 8 7 5 6 8 9 8 8 8 9 6 8 10 12 13 12 11 7 5 5 5 5 5 5 5 5 5 5 4 5 4 4
6 6 5 5 6 6 5 5 5 5 5 5 5 4 4 4 3 4 4 4 5 5 5 5 4 5 4 5 5 6 5 5 5 6 5 6 6 5 5 5 4 4 5 5 5 5 4 4 4 4 4 4
8 7 5 5 7 7 5 5 5 5 5 5 5 4 4 5 5 4 4 4 4 4 5 4 4 4 3 4 3 4 5 5 5 4 5 5 5 5 4 5 4 3 4 5 5 5 4 4 4 4 4 5
7 7 6 6 7 8 6 5 5 5 5 5 4 4 5 6 5 4 4 4 4 5 5 5 5 4 4 4 4 4 5 4 4 5 5 5 5 4 5 4 4 4 4 3 4 4 4 4 4 4 5 5
8 7 7 7 7 7 7 7 6 5 6 5 5 5 5 5 6 6 5 4 4 4 4 5 4 5 4 4 3 3 5 5 4 5 5 5 4 5 4 5 3 4 3 3 3 4 3 4 4 4 4 4
8 7 7 7 7 7 7 7 7 6 5 6 5 5 6 6 6 5 5 5 5 4 4 4 4 5 5 4 4 4 4 4 5 5 5 5 5 4 5 4 4 4 3 3 3 4 4 3 4 3 3 5
8 8 8 8 8 7 7 7 7 7 6 6 6 6 6 6 6 7 7 6 5 6 5 4 3 4 5 5 5 5 5 4 5 5 5 4 4 5 4 5 4 4 4 3 3 3 4 3 3 3 3 4
8 8 8 8 8 8 7 7 7 7 7 6 6 6 7 6 6 6 6 6 6 5 5 5 5 5 4 5 5 4 5 3 4 4 5 5 5 5 5 5 3 4 5 3 3 3 4 3 3 4 3 4
9 9 9 8 8 9 9 8 6 7 8 7 7 6 7 6 6 6 6 6 6 6 6 6 6 5 5 5 5 4 5 5 4 4 3 3 3 3 4 5 3 2 5 4 3 3 3 3 4 3 3 4
10 8 8 8 8 8 9 9 7 7 8 8 7 6 7 7 6 6 6 6 7 7 6 6 6 6 6 5 5 4 4 5 4 5 5 4 3 4 4 5 3 3 3 5 3 3 3 3 3 3 3 3
9 9 8 8 7 7 8 8 9 8 7 7 8 8 9 9 8 7 6 7 6 6 6 6 6 7 6 5 5 5 5 6 5 6 6 5 5 4 5 5 4 5 4 2 2 2 1 2 3 3 4 1
10 9 8 8 8 7 8 8 8 8 8 8 8 9 9 10 9 9 9 8 8 8 7 7 7 7 7 6 6 6 5 6 5 6 6 6 6 4 4 4 4 4 4 4 4 3 1 2 1 2 3 2
9 9 8 7 7 7 7 7 8 8 8 8 8 8 8 10 10 10 10 10 9 9 8 8 8 8 6 7 7 6 6 6 7 6 6 6 7 7 5 5 4 3 4 3 4 2 2 1 0 1 2 3
8 8 8 8 8 9 8 8 8 8 7 7 8 8 9 9 10 11 11 10 10 9 9 9 8 8 9 8 8 7 7 7 7 7 6 6 6 7 7 6 6 4 4 4 3 2 2 1 1 0 1 2
9 8 8 7 7 7 9 10 8 7 8 9 8 8 8 9 10 10 11 11 10 9 8 8 7 8 11 11 9 8 7 7 7 9 9 8 6 6 7 7 7 6 4 3 3 3 2 1 1 1 2 2
7 6 6 6 7 8 9 8 8 8 8 8 8 9 11 11 9 9 11 11 10 9 8 8 8 7 6 7 10 10 8 6 6 6 7 10 8 4 5 7 7 7 6 5 3 2 2 2 2 1 2 3
6 6 7 8 4 7 9 8 8 7 9 8 8 8 8 10 11 11 11 11 10 11 10 10 9 9 8 8 7 9 11 9 7 9 8 7 9 8 3 3 4 6 7 5 4 3 2 2 1 1 2 2
9 9 7 7 10 11 8 7 7 7 7 7 8 8 9 9 8 8 11 12 11 10 9 9 9 9 9 10 10 10 11 13 14 13 12 11 9 11 9 4 5 6 7 8 3 2 1 2 1 1 1 3
10 11 11 10 10 9 7 7 7 8 7 8 6 7 8 9 9 9 9 9 10 11 11 10 8 9 8 8 9 10 10 10 9 8 8 7 8 6 10 8 10 9 9 2 6 6 2 2 3 2 3 3
11 9 7 8 6 8 4 4 5 5 4 4 6 7 8 8 8 9 9 9 9 9 10 10 11 12 12 12 11 10 10 9 10 10 11 9 9 8 6 5 6 10 11 6 5 3 5 2 2 4 4 4
9 7 5 4 3 4 6 6 4 5 4 5 7 9 7 8 9 9 9 9 9 9 8 9 10 8 9 12 13 13 12 12 12 12 12 11 10 8 8 5 8 10 11 6 11 4 6 4 3 4 11 10
6 5 4 3 3 3 2 2 2 4 6 7 6 6 8 9 6 8 9 9 9 10 11 10 9 9 8 10 10 9 10 11 12 13 13 14 13 14 12 9 7 10 11 10 12 8 6 2 2 9 1 3
7 8 8 7 7 6 5 7 6 10 12 8 9 10 5 5 8 8 8 9 10 11 10 11 9 9 9 9 11 12 12 10 8 10 11 12 12 13 11 11 9 10 11 10 10 8 3 4 7 6 4 5
8 7 7 11 12 11 11 11 10 6 5 7 6 5 7 8 7 9 9 9 9 10 11 12 13 12 10 8 8 8 9 12 14 13 12 9 10 10 9 8 10 13 12 8 9 10 8 2 2 3 8 8
Wind_Direction
151 142 143 145 142 144 141 140 139 139 138 137 134 132 123 101 120 125 125 127 128 125 124 125 112 112 115 118 123 120 111 101 87 81 78 77 78 79 79 79 79 79 78 76 74 74 73 70 60 64 64 57
149 142 145 147 144 144 144 144 145 145 146 144 141 133 124 124 120 131 140 140 137 133 131 125 127 128 127 132 132 124 109 111 103 100 95 93 91 89 86 83 79 76 75 72 68 70 69 63 65 68 67 62
149 146 147 147 146 145 147 145 144 145 143 137 130 125 122 116 109 98 94 94 98 103 109 122 126 129 129 135 136 126 117 116 112 107 105 105 106 105 103 99 94 86 77 69 61 55 54 55 67 62 58 45
148 149 149 151 148 149 147 145 144 137 131 127 126 122 117 112 102 95 95 97 99 98 94 95 103 118 128 132 133 136 131 118 113 110 108 109 108 108 108 105 103 102 97 89 75 60 49 39 42 43 40 36
147 154 149 152 151 151 149 146 141 133 126 123 121 118 115 107 97 95 96 91 97 96 98 107 112 120 128 131 131 132 135 125 114 105 101 99 98 97 91 83 80 84 90 91 90 83 69 58 47 32 32 33
153 154 153 154 155 150 147 142 135 131 133 129 120 117 110 101 99 92 87 88 87 92 99 104 108 108 117 122 118 131 133 125 105 96 91 86 80 75 67 55 57 52 50 59 73 81 82 75 67 50 42 45
163 159 157 159 156 148 145 144 139 140 136 134 134 127 115 110 109 109 101 101 105 101 100 107 112 115 115 119 120 119 125 117 102 93 85 79 75 70 64 59 58 55 50 46 40 48 58 68 65 66 51 51
162 166 164 163 159 150 148 148 151 149 146 144 148 140 130 123 120 118 120 114 112 108 108 116 119 124 126 124 122 118 118 97 86 85 82 81 78 70 71 76 69 75 68 58 50 55 51 55 52 58 53 45
171 171 166 168 160 152 154 157 155 156 155 155 152 145 136 131 125 122 121 124 116 119 121 119 123 123 123 123 120 107 82 89 89 86 87 80 78 82 92 87 82 95 90 79 79 73 65 65 60 63 53 52
173 173 167 145 157 157 162 165 165 160 162 161 156 150 140 128 126 130 130 134 135 133 135 132 132 129 126 119 113 97 100 97 100 91 93 94 93 90 88 92 90 78 95 103 90 94 83 83 78 74 62 60
174 183 178 175 172 164 170 169 168 173 170 172 162 154 151 145 146 145 147 149 152 152 148 147 142 138 131 131 114 101 114 105 100 107 104 100 102 102 95 87 83 82 74 80 99 84 85 80 77 72 71 63
181 185 180 180 171 178 172 170 178 180 176 169 172 165 164 156 155 157 158 164 164 165 153 157 152 142 137 132 116 104 114 117 107 107 108 110 104 100 92 100 86 84 81 75 81 97 79 77 66 63 67 67
185 188 183 180 181 187 172 181 184 180 166 175 177 174 168 162 159 162 164 168 172 153 166 153 155 153 157 147 135 126 122 129 129 121 124 121 115 107 108 106 102 97 78 71 64 91 90 81 76 71 73 71
187 190 189 186 187 188 176 188 182 171 177 181 177 180 180 179 171 173 173 171 164 166 172 166 158 164 166 165 153 145 147 151 139 138 127 121 122 119 119 113 118 109 97 72 67 69 93 78 89 78 84 82
193 191 195 188 184 186 190 189 178 179 182 182 189 184 181 183 182 173 170 169 169 171 168 169 169 179 169 171 171 160 149 148 145 140 142 148 143 139 128 120 117 119 108 93 79 80 94 96 92 91 84 98
196 195 197 191 184 188 190 190 191 181 184 188 191 186 185 185 184 178 175 171 171 175 171 177 179 175 178 189 174 165 150 145 139 135 122 110 111 115 116 115 100 97 118 106 101 101 103 102 101 97 103 108
199 196 195 194 192 187 183 189 195 192 187 187 188 190 188 190 186 184 178 178 177 177 177 176 176 181 192 185 171 161 152 137 128 118 116 100 104 105 108 110 103 91 93 121 123 105 115 114 108 99 94 111
199 198 196 195 194 188 183 187 193 199 191 185 187 191 193 193 190 187 183 175 180 179 179 180 185 187 189 183 171 156 153 148 147 140 136 142 130 140 140 142 146 133 122 105 99 108 117 106 128 118 95 72
202 198 198 195 195 192 188 188 193 195 194 193 190 190 197 195 192 194 188 182 180 186 187 185 188 192 193 179 171 163 169 155 154 150 153 154 145 147 139 143 158 157 150 151 149 148 108 129 102 95 113 104
203 200 200 200 198 194 191 192 195 195 195 195 194 192 195 196 195 195 197 188 185 187 191 191 190 192 183 178 174 174 167 161 162 163 156 173 157 151 164 151 162 137 145 151 142 115 88 51 17 110 130 131
204 200 202 202 201 200 195 200 202 198 195 197 197 195 196 193 197 196 198 195 193 193 192 192 193 188 180 174 181 181 177 178 172 164 165 173 185 172 160 169 159 158 152 150 130 99 94 55 24 330 293 165
203 202 201 203 203 203 205 205 203 204 200 202 198 196 202 192 195 197 200 197 194 198 196 199 201 197 182 175 179 184 185 196 184 175 168 171 184 178 159 170 169 164 143 122 114 86 58 13 39 6 336 336
202 199 205 204 200 207 214 213 208 200 205 207 202 202 198 195 196 198 200 199 195 199 195 196 199 203 196 190 182 175 184 197 193 196 187 171 172 180 187 174 167 154 144 126 102 79 25 18 359 2 341 330
191 196 202 206 209 220 215 211 211 212 210 200 207 206 202 203 200 193 196 202 199 198 195 195 196 198 188 190 198 192 180 186 189 191 189 192 167 162 142 112 134 137 132 105 87 61 28 23 6 354 343 316
190 199 206 214 211 217 209 210 209 216 215 211 211 205 204 201 206 207 199 197 196 203 200 201 193 194 195 190 191 202 204 189 186 189 188 181 175 166 160 154 153 161 140 133 79 28 10 349 359 299 308 270
196 201 202 201 214 216 207 203 206 217 214 216 216 217 212 207 204 204 204 202 199 199 197 196 195 191 193 195 203 203 206 204 193 195 203 178 165 180 172 176 174 168 137 175 178 162 211 332 317 271 272 253
203 202 205 202 209 204 216 227 214 218 209 205 217 220 218 215 210 208 210 202 203 202 204 205 202 198 188 191 196 204 206 203 197 187 192 190 186 172 184 148 176 180 190 156 117 82 80 281 276 273 282 250
203 192 184 186 169 194 189 200 202 207 203 203 217 226 221 224 214 210 213 207 203 208 208 206 212 218 205 196 191 194 201 203 204 190 194 191 192 176 174 175 185 197 199 154 140 163 186 163 167 312 242 224
174 145 135 114 71 70 74 22 173 194 230 215 213 221 218 224 220 218 217 213 211 209 211 210 209 206 201 201 198 199 203 207 206 199 198 195 191 183 183 186 185 198 205 198 200 154 123 93 208 222 298 149
168 178 174 166 173 192 196 215 195 210 217 208 211 217 208 216 215 223 223 217 216 213 210 211 212 212 205 201 201 197 198 209 212 207 203 203 201 196 195 186 175 198 211 211 221 233 246 155 173 177 184 123
174 181 189 194 200 205 207 216 226 221 217 207 214 198 205 210 206 216 222 225 221 221 217 217 215 216 218 207 204 219 217 207 200 195 200 199 206 207 190 179 195 201 198 208 230 235 239 153 124 170 137 204